Skip Page Navigation
NASA JPL Caltech
NASA Logo - Jet Propulsion Laboratory + View the NASA Portal
+ Center for Near-Earth Object Studies
JPL Home Earth Solar System Stars & Galaxies Technology
JPL Solar System Dynamics
BODIES ORBITS EPHEMERIDES TOOLS PHYSICAL DATA DISCOVERY FAQ SITE MAP
IMPORTANT: The SSD Announcement email list is now available. Major changes are coming in the near future, including possible hostname and/or URL changes. To be notified of such changes, subscribe to this email list.

Please visit this page for more details.


JPL Small-Body Database Browser
Search: [ help ]  
35595 (1998 HO116)
Classification: Main-belt Asteroid          SPK-ID: 2035595
Ephemeris | Orbit Diagram | Orbital Elements | Mission Design | Physical Parameters | Discovery Circumstances | Close-Approach Data ]

[ show orbit diagram ]
Orbital Elements at Epoch 2459000.5 (2020-May-31.0) TDB
Reference: JPL 24 (heliocentric ecliptic J2000)
 Element Value Uncertainty (1-sigma)   Units 
e .08299509386049204 4.6723e-08  
a 2.561613987976041 1.2267e-08 au
q 2.34901259460962 1.2193e-07 au
i 13.43788485698119 6.3531e-06 deg
node 185.0741194906267 1.7286e-05 deg
peri 304.7216063518414 4.0062e-05 deg
M 215.3532360458111 3.4156e-05 deg
tp 2459602.193302398388
(2022-Jan-22.69330240)
0.0001421 TDB
period 1497.507327104961
4.10
1.0757e-05
2.945e-08
d
yr
n .2403994915310136 1.7268e-09 deg/d
Q 2.774215381342462 1.3285e-08 au
  Orbit Determination Parameters
   # obs. used (total)      1194  
   data-arc span      7822 days (21.42 yr)  
   first obs. used      1998-03-24  
   last obs. used      2019-08-23  
   planetary ephem.      DE431  
   SB-pert. ephem.      SB431-N16  
   condition code      0  
   norm. resid. RMS      .5337  
   source      ORB  
   producer      Otto Matic  
   solution date      2020-Feb-23 03:52:55  

Additional Information
 Earth MOID = 1.38635 au 
 Jupiter MOID = 2.27438 au 
 T_jup = 3.391 
[ hide covariance matrix ]
Orbital Elements at Epoch 2456302.5 (2013-Jan-10.0) TDB
Reference: JPL 24 (heliocentric ecliptic J2000)
 Element Value Uncertainty (1-sigma)   Units 
e .08287841390044375 4.6164e-08  
q 2.350210019762932 1.206e-07 au
tp 2456602.881439453819
(2013-Nov-06.38143945)
0.00014496 TDB
node 185.2665079769102 1.7275e-05 deg
peri 303.9190916361057 4.0509e-05 deg
i 13.44168490600027 6.3538e-06 deg
  Orbit Determination Parameters
   # obs. used (total)      1194  
   data-arc span      7822 days (21.42 yr)  
   first obs. used      1998-03-24  
   last obs. used      2019-08-23  
   planetary ephem.      DE431  
   SB-pert. ephem.      SB431-N16  
   condition code      0  
   norm. resid. RMS      .5337  
   source      ORB  
   producer      Otto Matic  
   solution date      2020-Feb-23 03:52:55  

Additional Information
 Jupiter MOID = 2.27438 au 
 T_jup = 3.391 
Orbit Covariance (6×6)
  e q tp node peri i
e 2.131160615780816E-15 -5.543919271288942E-15 2.964552998876984E-12 -6.804431449594025E-15 7.388798746044036E-13 -1.867194328831396E-15
q -5.543919271288942E-15 1.454325467044339E-14 -7.783355896262491E-12 1.893360664046872E-14 -1.946794987777012E-12 4.716425501067184E-15
tp 2.964552998876984E-12 -7.783355896262491E-12 2.101212015878466E-8 -2.002369703032509E-11 5.321598279317944E-9 -1.109116172013724E-11
node -6.804431449594025E-15 1.893360664046872E-14 -2.002369703032509E-11 2.984282023389777E-10 -2.945871880704624E-10 -1.335646020110009E-11
peri 7.388798746044036E-13 -1.946794987777012E-12 5.321598279317944E-9 -2.945871880704624E-10 1.640944713655064E-9 1.022067541767009E-11
i -1.867194328831396E-15 4.716425501067184E-15 -1.109116172013724E-11 -1.335646020110009E-11 1.022067541767009E-11 4.037104327115372E-11

Ephemeris | Orbit Diagram | Orbital Elements | Mission Design | Physical Parameters | Discovery Circumstances | Close-Approach Data ]

Physical Parameter Table
Parameter Symbol Value Units Sigma Reference Notes
absolute magnitude H 14.4   n/a MPO395341  
diameter diameter 6.232 km 0.085 urn:nasa:pds:neowise_diameters_albedos::2.0[mainbelt] (http://adsabs.harvard.edu/abs/2011ApJ...741...68M)  
rotation period rot_per 11.42100 h n/a LCDB (Rev. 2019-August); Warner et al., 2009 sidereal period (not synodic); Result based on less than full coverage, so that the period may be wrong by 30 percent or so.
Published Reference List:
[Durech, J.; Hanus, J.; Ali-Lagoa, V. (2018) Astron. Astrophys. 617, A57.]
geometric albedo albedo 0.106   0.005 urn:nasa:pds:neowise_diameters_albedos::2.0[mainbelt] (http://adsabs.harvard.edu/abs/2011ApJ...741...68M)  

35595 (1998 HO116)          Discovered 1998-Apr-23 by LINEAR at Socorro
Reference: 20020227/Numbers.arcLast Updated: 2004-04-19

[ show close-approach data ]
Alternate Designations
 1998 HO116 = 1999 NG54 
Ephemeris | Orbit Diagram | Orbital Elements | Mission Design | Physical Parameters | Discovery Circumstances | Close-Approach Data ]
ABOUT SSD CREDITS/AWARDS PRIVACY/COPYRIGHT GLOSSARY LINKS
FirstGov 2020-May-27 10:53 UT
(server date/time)  
NASA Home Page
Site Manager:   Ryan S. Park
Webmaster  Alan B. Chamberlin